Flag for Germany Weather past 2 weeks in Naumburg (Saale), Saxony-Anhalt, Germany

Now
64 °F

Partly sunny.


Feels Like: 64 °F
Forecast: 48 / 70 °F
Wind: 8 mph from West

Location: Gera-Leumnitz

Current Time: Jul 30, 2015 at 1:15:53 PM

Latest Report: Jul 30, 2015 at 12:00 PM


Visibility: 12 mi

Pressure: 29.92 "Hg

Humidity: 48%

Dew point: 44 °F

Location of Naumburg (Saale)Location

Historic Weather in Naumburg (Saale) — Graph

°F

Naumburg (Saale) temperature yesterday

Maximum temperature yesterday: 66 °F (at 4:00 PM)
Minimum temperature yesterday: 51 °F (at 11:00 PM)
Average temperature yesterday: 58 °F

Past Weeks' High & Low Weather Summary

 TemperatureHumidityPressure
High92 °F (Jul 17, 6:00 PM)100% (Jul 19, 4:00 AM)30.11 "Hg (Jul 19, 4:00 AM)
Low49 °F (Jul 30, 5:00 AM)26% (Jul 17, 5:00 PM)29.60 "Hg (Jul 27, 1:00 PM)
Average69 °F64%29.87 "Hg
* Reported Jul 15 10:00 AM — Jul 30 10:00 AM, Naumburg (Saale), Weather by CustomWeather, © 2015

Note: Actual official high and low records may vary slightly from our data, if they occured in-between our weather recording intervals... More about our weather records

Advertising

Naumburg (Saale) weather history for previous 24 hours

 ConditionsComfort  
Time TempWeatherWind HumidityBarometerVisibility
10:00 AM
Thu, Jul 30
59 °FHaze.9 mph58%29.92 "Hg11 mi
9:00 AM56 °FSunny.10 mph64%29.92 "Hg13 mi
8:00 AM55 °FSunny.9 mph67%29.91 "Hg22 mi
7:00 AM51 °FSunny.7 mph76%29.93 "Hg31 mi
5:00 AM49 °FClear.7 mph78%29.91 "Hg43 mi
4:00 AM50 °FClear.7 mph77%29.90 "Hg43 mi
3:00 AM51 °FClear.7 mph76%29.89 "Hg43 mi
2:00 AM52 °FClear.6 mph72%29.88 "Hg43 mi
1:00 AM52 °FClear.6 mph74%29.88 "Hg43 mi
11:00 PM
Wed, Jul 29
51 °FPassing clouds.5 mph93%29.86 "Hg19 mi
10:00 PM52 °FPassing clouds.5 mph91%29.84 "Hg31 mi
9:00 PM53 °FSunny.3 mph91%29.82 "Hg31 mi
8:00 PM56 °FSunny.3 mph87%29.80 "Hg34 mi
7:00 PM55 °FLight rain. Overcast.6 mph81%29.81 "Hg16 mi
6:00 PM57 °FLight rain. Low clouds.8 mph68%29.76 "Hg15 mi
5:00 PM66 °FScattered clouds.8 mph48%29.72 "Hg22 mi
4:00 PM66 °FScattered clouds.10 mph47%29.72 "Hg11 mi
3:00 PM65 °FPartly sunny.10 mph46%29.73 "Hg10 mi
2:00 PM64 °FOvercast.9 mph56%29.74 "Hg22 mi
Weather by CustomWeather, © 2015

See weather overviewHow to use our weather pages